Date String (YYYY-MM-DD hh:mm:ss) UTC,Instrument flags,absolute air pressure of the measurement (hPa),sample flow rate (lpm),inlet stack bypass flow (lpm),air temperature of the measurement (°C),ambient temperature measured by the external sensor (°C),aerosol sample conditioner tube jacket temperature (°C),OPC LED temperature (°C),internal box temperature (°C),relative humidity of the measurement (%),span deviation,mass concentration of particles derived from Lorenz-Mie calculation of OPC scattering (μg/m³),mass concentration of particles derived from Lorenz-Mie calculation of OPC scattering (μg/m³),mass concentration of particles derived from Lorenz-Mie calculation of OPC scattering (μg/m³)
DateTimeUTC,F1_M11,P_M11,Q1_M11,Q2_M11,T1_M11,T2_M11,T3_M11,T4_M11,T5_M11,U1_M11,ZSPAN_M11,X0_M11,X2_M11,X1_M11
2023-11-28 10:00:00,SystemResetWarning,0831.6,5.01,000.00,018.8,017.9,000.0,027.2,020.0,9.1,0000.0,0007.59,0001.84,0001.33
2023-11-28 10:01:00,SystemResetWarning,0831.6,5.00,000.00,018.8,017.9,000.0,027.2,020.0,9.1,0000.0,0007.55,0001.80,0001.30
2023-11-28 10:02:00,SystemResetWarning,0831.6,4.99,000.00,018.8,017.9,000.0,027.2,020.0,9.1,0000.0,0007.34,0001.72,0001.27
2023-11-28 10:03:00,SystemResetWarning,0831.6,4.99,000.00,018.8,017.9,000.0,027.2,020.0,9.0,0000.0,0006.45,0001.71,0001.24
2023-11-28 10:04:00,SystemResetWarning,0831.6,4.99,000.00,018.8,017.9,000.0,027.2,020.0,9.1,0000.0,0005.57,0001.68,0001.23
2023-11-28 10:05:00,SystemResetWarning,0831.6,5.00,000.00,018.8,017.9,000.0,027.2,020.0,9.1,0000.0,0003.04,0001.64,0001.21
2023-11-28 10:06:00,SystemResetWarning,0831.5,5.01,000.00,018.8,017.9,000.0,027.2,020.0,9.1,0000.0,0002.77,0001.62,0001.20
2023-11-28 10:07:00,SystemResetWarning,0831.5,5.01,000.00,018.8,017.9,000.0,027.2,020.0,9.1,0000.0,0002.71,0001.59,0001.19
2023-11-28 10:08:00,SystemResetWarning,0831.5,5.01,000.00,018.8,017.9,000.0,027.2,020.0,9.2,0000.0,0002.91,0001.58,0001.19
2023-11-28 10:09:00,SystemResetWarning,0831.5,5.00,000.00,018.8,017.9,000.0,027.2,020.0,9.1,0000.0,0002.99,0001.58,0001.19
2023-11-28 10:10:00,SystemResetWarning,0831.4,4.99,000.00,018.8,017.9,000.0,027.2,020.0,9.1,0000.0,0003.00,0001.60,0001.20
2023-11-28 10:11:00,SystemResetWarning,0831.4,4.99,000.00,018.8,017.9,000.0,027.2,020.0,9.1,0000.0,0003.10,0001.64,0001.21
2023-11-28 10:12:00,SystemResetWarning,0831.4,5.00,000.00,018.8,017.9,000.0,027.2,020.0,9.1,0000.0,0003.09,0001.63,0001.23
2023-11-28 10:13:00,SystemResetWarning,0831.4,5.00,000.00,018.8,017.9,000.0,027.2,020.0,9.1,0000.0,0003.08,0001.67,0001.25
2023-11-28 10:14:00,SystemResetWarning,0831.3,5.00,000.00,018.8,017.9,000.0,027.2,020.0,9.1,0000.0,0002.99,0001.66,0001.26
2023-11-28 10:15:00,SystemResetWarning,0831.3,5.00,000.00,018.8,017.9,000.0,027.2,020.0,8.9,0000.0,0002.84,0001.62,0001.26
2023-11-28 10:16:00,SystemResetWarning,0831.3,5.00,000.00,018.8,018.0,000.0,027.2,020.0,8.8,0000.0,0002.75,0001.60,0001.27
2023-11-28 10:17:00,SystemResetWarning,0831.4,5.00,000.00,018.8,017.9,000.0,027.2,020.0,8.8,0000.0,0002.75,0001.60,0001.28
2023-11-28 10:18:00,SystemResetWarning,0831.3,5.00,000.00,018.8,017.9,000.0,027.2,020.0,8.8,0000.0,0002.75,0001.60,0001.27
2023-11-28 10:19:00,SystemResetWarning,0831.3,5.00,000.00,018.8,017.9,000.0,027.2,020.0,8.8,0000.0,0002.57,0001.60,0001.26
2023-11-28 10:20:00,SystemResetWarning,0831.3,5.00,000.00,018.8,017.9,000.0,027.2,020.0,8.7,0000.0,0002.48,0001.61,0001.27
2023-11-28 10:21:00,SystemResetWarning,0831.3,5.00,000.00,018.8,017.9,000.0,027.2,020.0,8.8,0000.0,0002.41,0001.59,0001.27
2023-11-28 10:22:00,SystemResetWarning,0831.3,5.00,000.00,018.8,017.9,000.0,027.2,020.0,8.8,0000.0,0002.26,0001.55,0001.26
2023-11-28 10:23:00,SystemResetWarning,0831.3,5.00,000.00,018.8,017.8,000.0,027.2,020.0,8.7,0000.0,0002.25,0001.53,0001.23
2023-11-28 10:24:00,SystemResetWarning,0831.3,5.00,000.00,018.8,017.8,000.0,027.2,020.0,8.7,0000.0,0002.12,0001.48,0001.22
2023-11-28 10:25:00,SystemResetWarning,0831.3,5.00,000.00,018.8,017.8,000.0,027.2,020.0,9.0,0000.0,0001.95,0001.43,0001.20
2023-11-28 10:26:00,SystemResetWarning,0831.3,5.00,000.00,018.8,017.8,000.0,027.2,020.0,9.2,0000.0,0001.86,0001.41,0001.18
2023-11-28 10:27:00,SystemResetWarning,0831.3,5.00,000.00,018.8,017.8,000.0,027.2,020.0,9.1,0000.0,0002.02,0001.46,0001.17
2023-11-28 10:28:00,SystemResetWarning,0831.3,5.00,000.00,018.8,017.8,000.0,027.2,020.0,9.1,0000.0,0002.02,0001.45,0001.15
2023-11-28 10:29:00,SystemResetWarning,0831.3,5.00,000.00,018.8,017.8,000.0,027.2,020.0,9.2,0000.0,0001.95,0001.41,0001.12
2023-11-28 10:30:00,SystemResetWarning,0831.3,5.00,000.00,018.8,017.8,000.0,027.2,020.0,9.3,0000.0,0001.88,0001.37,0001.09
2023-11-28 10:31:00,SystemResetWarning,0831.4,5.00,000.00,018.8,017.8,000.0,027.2,020.0,9.3,0000.0,0001.85,0001.33,0001.06
2023-11-28 10:32:00,SystemResetWarning,0831.3,5.00,000.00,018.8,017.8,000.0,027.2,020.0,9.4,0000.0,0001.84,0001.32,0001.03
2023-11-28 10:33:00,SystemResetWarning,0831.3,5.00,000.00,018.8,017.8,000.0,027.2,020.0,9.4,0000.0,0001.83,0001.29,0001.00
2023-11-28 10:34:00,SystemResetWarning,0831.3,5.00,000.00,018.8,017.8,000.0,027.2,020.0,9.6,0000.0,0001.86,0001.26,0000.98
2023-11-28 10:35:00,SystemResetWarning,0831.3,4.99,000.00,018.8,017.8,000.0,027.2,020.0,9.8,0000.0,0001.89,0001.26,0000.96
2023-11-28 10:36:00,SystemResetWarning,0831.3,4.98,000.00,018.8,017.9,000.0,027.2,020.0,9.7,0000.0,0001.88,0001.24,0000.93
2023-11-28 10:37:00,SystemResetWarning,0831.3,5.00,000.00,018.8,017.9,000.0,027.2,020.0,9.3,0000.0,0001.90,0001.24,0000.91
2023-11-28 10:38:00,SystemResetWarning,0831.3,5.01,000.00,018.8,017.9,000.0,027.2,020.0,9.2,0000.0,0001.71,0001.15,0000.88
2023-11-28 10:39:00,SystemResetWarning,0831.3,5.01,000.00,018.8,017.9,000.0,027.2,020.0,9.2,0000.0,0001.71,0001.15,0000.87
2023-11-28 10:40:00,SystemResetWarning,0831.3,4.99,000.00,018.8,018.0,000.0,027.2,020.0,9.3,0000.0,0002.11,0001.13,0000.85
2023-11-28 10:41:00,SystemResetWarning,0831.2,4.99,000.00,018.8,018.0,000.0,027.2,020.0,9.3,0000.0,0002.59,0001.11,0000.83
2023-11-28 10:42:00,SystemResetWarning,0831.2,4.99,000.00,018.8,018.0,000.0,027.2,020.0,9.3,0000.0,0002.54,0001.09,0000.82
2023-11-28 10:43:00,SystemResetWarning,0831.3,5.01,000.00,018.8,018.0,000.0,027.2,020.0,9.3,0000.0,0002.49,0001.08,0000.83
2023-11-28 10:44:00,SystemResetWarning,0831.2,5.00,000.00,018.8,017.9,000.0,027.2,020.0,9.4,0000.0,0002.52,0001.10,0000.84
2023-11-28 10:45:00,SystemResetWarning,0831.3,5.00,000.00,018.8,017.9,000.0,027.2,020.0,9.3,0000.0,0002.48,0001.10,0000.85
2023-11-28 10:46:00,SystemResetWarning,0831.2,5.00,000.00,018.8,017.9,000.0,027.2,020.0,9.2,0000.0,0002.40,0001.07,0000.84
2023-11-28 10:47:00,SystemResetWarning,0831.2,5.00,000.00,018.8,017.9,000.0,027.2,020.0,9.1,0000.0,0002.36,0001.06,0000.84
2023-11-28 10:48:00,SystemResetWarning,0831.2,5.00,000.00,018.8,017.9,000.0,027.2,020.0,9.1,0000.0,0002.30,0001.03,0000.84
2023-11-28 10:49:00,SystemResetWarning,0831.2,5.00,000.00,018.8,017.9,000.0,027.2,020.0,9.2,0000.0,0002.31,0001.03,0000.84
2023-11-28 10:50:00,SystemResetWarning,0831.2,5.00,000.00,018.8,017.9,000.0,027.2,020.0,9.3,0000.0,0002.22,0000.99,0000.84
2023-11-28 10:51:00,SystemResetWarning,0831.2,4.99,000.00,018.8,017.9,000.0,027.2,020.0,9.4,0000.0,0002.18,0001.01,0000.85
2023-11-28 10:52:00,SystemResetWarning,0831.2,4.99,000.00,018.8,017.9,000.0,027.2,020.0,9.4,0000.0,0001.46,0001.03,0000.85
2023-11-28 10:53:00,SystemResetWarning,0831.1,5.00,000.00,018.8,017.9,000.0,027.2,020.0,9.3,0000.0,0001.43,0001.02,0000.85
2023-11-28 10:54:00,SystemResetWarning,0831.2,5.00,000.00,018.8,017.9,000.0,027.2,020.0,9.0,0000.0,0001.42,0001.01,0000.85
2023-11-28 10:55:00,SystemResetWarning,0831.2,5.00,000.00,018.8,017.9,000.0,027.2,020.0,8.9,0000.0,0001.47,0001.01,0000.84
2023-11-28 10:56:00,SystemResetWarning,0831.2,5.00,000.00,018.8,017.8,000.0,027.2,020.0,8.9,0000.0,0001.40,0000.98,0000.82
2023-11-28 10:57:00,SystemResetWarning,0831.2,5.00,000.00,018.8,017.8,000.0,027.2,020.0,8.8,0000.0,0001.53,0000.98,0000.82
2023-11-28 10:58:00,SystemResetWarning,0831.3,5.00,000.00,018.8,017.8,000.0,027.2,020.0,9.0,0000.0,0001.59,0000.97,0000.81
2023-11-28 10:59:00,SystemResetWarning,0831.2,4.99,000.00,018.8,017.8,000.0,027.2,020.0,9.1,0000.0,0001.55,0000.95,0000.80
